Home   Weather   Fort Worth   Past weeks

Flag for USA Past Weather in Fort Worth, Texas, USA — Yesterday and Last 2 Weeks

Now
55 °F

Clear.


Feels Like: 53 °F
Forecast: 48 / 71 °F
Wind: 8 mph from Southwest

Location: Meacham International Airport

Current Time: Jan 20, 2017 at 2:02:30 am

Latest Report: Jan 20, 2017 at 12:53 am


Visibility: 10 mi

Pressure: 29.60 "Hg

Humidity: 62%

Dew Point: 42 °F

Location of Fort WorthLocation

Past Weather in Fort Worth — Graph

°F

Fort Worth Temperature Yesterday

Maximum temperature yesterday: 70 °F (at 3:53 pm)
Minimum temperature yesterday: 47 °F (at 12:58 am)
Average temperature yesterday: 54 °F

High & Low Weather Summary for the Past Weeks

 TemperatureHumidityPressure
High81 °F (Jan 11, 2:53 pm)97% (Jan 16, 2:44 am)30.80 "Hg (Jan 16, 2:44 am)
Low13 °F (Jan 7, 5:53 am)19% (Jan 8, 3:53 pm)29.58 "Hg (Jan 19, 4:53 pm)
Average47 °F71%30.15 "Hg
* Reported Jan 5 12:53 am — Jan 20 12:53 am, Fort Worth, Weather by CustomWeather, © 2017

Note: Actual official high and low records may vary slightly from our data, if they occured in-between our weather recording intervals... More about our weather records

Advertising

Fort Worth Weather History for the Previous 24 Hours

Scroll right to see more
 ConditionsComfort  
Time TempWeatherWind HumidityBarometerVisibility
12:53 am
Fri, Jan 20
55 °FClear.8 mph62%29.60 "Hg10 mi
11:53 pm
Thu, Jan 19
56 °FClear.9 mph67%29.60 "Hg10 mi
10:53 pm58 °FClear.12 mph67%29.59 "Hg10 mi
9:53 pm56 °FClear.8 mph81%29.61 "Hg10 mi
8:53 pm57 °FClear.10 mph83%29.61 "Hg10 mi
7:53 pm58 °FClear.12 mph81%29.61 "Hg10 mi
6:53 pm59 °FClear.12 mph78%29.60 "Hg10 mi
5:53 pm65 °FClear.14 mph61%29.59 "Hg10 mi
4:53 pm70 °FSunny.13 mph46%29.58 "Hg10 mi
3:53 pm70 °FSunny.20 mph46%29.60 "HgN/A
2:53 pm69 °FSunny.13 mph47%29.61 "Hg10 mi
1:53 pm67 °FSunny.16 mph53%29.63 "Hg10 mi
11:53 am59 °FSunny.13 mph67%29.75 "Hg10 mi
11:06 am56 °FScattered clouds.13 mph75%29.80 "Hg10 mi
10:53 am55 °FPartly sunny.13 mph77%29.80 "Hg10 mi
9:53 am52 °FLow clouds.15 mph83%29.83 "Hg10 mi
8:53 am50 °FFog.10 mph89%29.81 "Hg4 mi
8:43 am50 °FFog.9 mph89%29.82 "Hg4 mi
8:03 am49 °FFog.6 mph93%29.82 "Hg4 mi
7:53 am49 °FFog.7 mph93%29.82 "Hg6 mi
6:53 am49 °FFog.8 mph93%29.83 "Hg4 mi
6:30 am49 °FFog.7 mph93%29.83 "Hg2 mi
5:53 am49 °FFog.9 mph93%29.82 "Hg4 mi
4:53 am49 °FLow clouds.8 mph93%29.86 "Hg7 mi
4:29 am49 °FFog.6 mph90%29.88 "Hg3 mi
4:14 am48 °FFog.3 mph93%29.89 "Hg1 mi
3:53 am48 °FFog.5 mph93%29.88 "Hg2 mi
3:16 am47 °FFog.3 mph97%29.90 "Hg0 mi
2:53 am47 °FFog.5 mph97%29.91 "Hg0 mi
Weather by CustomWeather, © 2017

See weather overviewHow to use our weather pages